Saint David, ME

11:34 AM EST on January 18, 2017 (GMT -0500)
Northern Aroostook Regional

Weather History for KFVE - November, 2011

Change the Weather History Date:

Thursday, November 17, 2011

  Actual Average Record
Temperature  
Mean Temperature 36 °F 29 °F  
Max Temperature 44 °F 35 °F 62 °F (2006)
Min Temperature 27 °F 24 °F 10 °F (2004)
Degree Days  
Heating Degree Days 29    
Month to date heating degree days 423  
Since 1 July heating degree days 1439  
Cooling Degree Days 0    
Month to date cooling degree days 0  
Year to date cooling degree days 87  
Moisture  
Dew Point 27 °F    
Average Humidity 71    
Maximum Humidity 89    
Minimum Humidity 64    
Precipitation  
Precipitation 0.00 in 0.11 in 0.72 in (2006)
Month to date precipitation 1.52 1.60  
Year to date precipitation 38.82 29.72  
Sea Level Pressure  
Sea Level Pressure 29.65 in    
Wind  
Wind Speed 11 mph (WNW)    
Max Wind Speed 18 mph    
Max Gust Speed 22 mph    
Visibility 10 miles    
Events      
T = Trace of Precipitation, MM = Missing Value Source: NWS Daily Summary

Daily Weather History Graph

Daily Weather History Graph

Search for Another Location

Airport or City:

Trip Planner

Search our weather history database for the weather conditions in past years. The results will help you decide how hot, cold, wet, or windy it might be!

Date:

Astronomy

Nov. 17, 2011 Rise Set
Actual Time 6:39 AM EST 3:55 PM EST
Civil Twilight 6:06 AM EST 4:29 PM EST
Nautical Twilight 5:29 AM EST 5:06 PM EST
Astronomical Twilight 4:52 AM EST 5:42 PM EST
Moon 10:21 PM EST (11/17) 11:40 AM EST (11/17)
Length of Visible Light 10h 23m
Length of Day
9h 15m
Waning Gibbous, 60% of the Moon is Illuminated
Nov 17
Waning Gibbous
Nov 18
Last Quarter
Nov 25
New
Dec 2
First Quarter
Dec 10
Full

Hourly Weather History & Observations

Time (EST) Temp. Windchill Dew Point Humidity Pressure Visibility Wind Dir Wind Speed Gust Speed Precip Events Conditions
12:53 AM 44.1 °F 40.8 °F 39.9 °F 85% 29.56 in 10.0 mi South 5.8 mph - N/A   Clear
1:53 AM 43.0 °F 38.8 °F 39.9 °F 89% 29.56 in 10.0 mi SW 6.9 mph - N/A   Clear
2:19 AM 44.6 °F 38.8 °F 39.2 °F 81% 29.56 in 10.0 mi WNW 11.5 mph - N/A   Mostly Cloudy
2:48 AM 42.8 °F 35.8 °F 37.4 °F 81% 29.57 in 10.0 mi West 13.8 mph - N/A   Overcast
2:53 AM 42.8 °F 36.2 °F 35.6 °F 76% 29.57 in 10.0 mi West 12.7 mph - N/A   Overcast
3:53 AM 39.9 °F 32.5 °F 35.1 °F 83% 29.60 in 10.0 mi WNW 12.7 mph - N/A   Clear
4:53 AM 39.0 °F 31.0 °F 32.0 °F 76% 29.61 in 10.0 mi WNW 13.8 mph - N/A   Clear
5:53 AM 35.1 °F 25.9 °F 28.0 °F 76% 29.63 in 10.0 mi West 13.8 mph - N/A   Clear
6:53 AM 35.1 °F 27.9 °F 25.0 °F 67% 29.66 in 10.0 mi West 9.2 mph - N/A   Clear
7:53 AM 35.1 °F 27.9 °F 25.0 °F 67% 29.66 in 10.0 mi West 9.2 mph - N/A   Clear
8:53 AM 35.1 °F 27.9 °F 25.0 °F 67% 29.68 in 10.0 mi West 9.2 mph - N/A   Clear
9:53 AM 36.0 °F 27.5 °F 27.0 °F 70% 29.69 in 10.0 mi West 12.7 mph - N/A   Clear
10:53 AM 37.0 °F 31.6 °F 28.0 °F 70% 29.68 in 10.0 mi West 6.9 mph - N/A   Clear
11:53 AM 37.9 °F 32.7 °F 27.0 °F 65% 29.65 in 10.0 mi WSW 6.9 mph - N/A   Overcast
12:08 PM 37.4 °F 32.1 °F 28.4 °F 70% 29.63 in 10.0 mi North 6.9 mph - N/A   Overcast
12:24 PM 37.4 °F 31.4 °F 26.6 °F 65% 29.64 in 10.0 mi NNW 8.1 mph - N/A   Overcast
12:53 PM 37.0 °F 30.4 °F 27.0 °F 67% 29.67 in 10.0 mi NNW 9.2 mph - N/A   Overcast
1:53 PM 37.0 °F 30.4 °F 26.1 °F 65% 29.66 in 10.0 mi NW 9.2 mph - N/A   Mostly Cloudy
2:53 PM 36.0 °F 29.0 °F 27.0 °F 70% 29.65 in 10.0 mi NNW 9.2 mph - N/A   Partly Cloudy
3:53 PM 33.1 °F 22.6 °F 24.1 °F 70% 29.69 in 10.0 mi NW 16.1 mph - N/A   Overcast
4:53 PM 32.0 °F 21.6 °F 21.9 °F 66% 29.69 in 10.0 mi NNW 15.0 mph 20.7 mph N/A   Overcast
5:53 PM 30.0 °F 18.3 °F 19.9 °F 66% 29.71 in 10.0 mi NNW 17.3 mph - N/A   Clear
6:53 PM 28.9 °F 19.8 °F 19.0 °F 67% 29.72 in 10.0 mi NNW 10.4 mph - N/A   Partly Cloudy
7:53 PM 28.9 °F 20.4 °F 19.0 °F 67% 29.72 in 10.0 mi NW 9.2 mph - N/A   Overcast
8:53 PM 28.0 °F 20.8 °F 18.0 °F 66% 29.71 in 10.0 mi NW 6.9 mph - N/A   Mostly Cloudy
9:53 PM 28.0 °F 18.6 °F 18.0 °F 66% 29.70 in 10.0 mi NW 10.4 mph - N/A   Overcast
10:53 PM 28.4 °F 18.5 °F 17.6 °F 64% 29.68 in 10.0 mi NW 11.5 mph 18.4 mph N/A   Mostly Cloudy
11:53 PM 27.0 °F 16.1 °F 17.1 °F 66% 29.70 in 10.0 mi NNW 12.7 mph - N/A   Clear